Regional Weather Roundup
Issued by NWS Lake Charles, LA

Home | Current Version | Previous Version | Text Only | Print | Product List | Glossary On
Versions: 1 2 3 4 5 6 7 8 9 10 11 12 13 14 15 16 17 18 19 20 21 22 23 24 25 26 27 28
000
ASUS44 KLCH 250910
RWRLCH
RWRLCH
REGIONAL WEATHER ROUNDUP
NATIONAL WEATHER SERVICE LAKE CHARLES LA
400 AM CDT SAT OCT 25 2014

Note: "fair" indicates few or no clouds below 12,000 feet with no
significant weather and/or obstructions to visibility.


ACROSS SOUTHEAST TEXAS

CITY           SKY/WX    TMP DP  RH WIND       PRES   REMARKS
BEAUMONT       CLEAR     54  52  93 N3        30.12S
BEAUMONT CITY    N/A     50  50 100 CALM      30.13S FOG
ORANGE           N/A    N/A N/A N/A CALM      30.13F FOG
JASPER         CLEAR     49  48  98 CALM      30.15F
$$

ACROSS CENTRAL LOUISIANA

CITY           SKY/WX    TMP DP  RH WIND       PRES   REMARKS
LEESVILLE      CLEAR     50  48  95 NW2       30.12S
FULLERTON        N/A     49  45  86 CALM      30.11R FOG
ALEXANDRIA INT PTCLDY    48  48 100 CALM      30.12R FOG
ESLER FIELD    CLEAR     44  44 100 CALM      30.13R FOG
DERIDDER         N/A     49  48  95 CALM      30.14F
OAKDALE        SUNNY     44  43  95 CALM      30.12F
OPELOUSAS        N/A     46  46  99 CALM      30.12S
$$

ACROSS SOUTHWEST AND SOUTH CENTRAL LOUISIANA

CITY           SKY/WX    TMP DP  RH WIND       PRES   REMARKS
SULPHUR        SUNNY     53  52  99 CALM      30.12F
LAKE CHARLES   CLEAR     52  50  93 CALM      30.12F
CHENNAULT INT  CLEAR     52  51  96 CALM      30.12S
CAMERON PHI    SUNNY     61  55  82 CALM      30.15S
DEQUINCY         N/A     48  47  97 CALM      30.13S
JENNINGS         N/A     52  52  99 CALM      30.12S
LAFAYETTE      CLEAR     54  49  83 CALM      30.12R
NEW IBERIA     CLEAR     51  48  89 NW3       30.12S
ABBEVILLE        N/A     47  46  95 CALM      30.12R
PATTERSON      CLEAR     54  52  94 CALM      30.12S
SALT POINT       N/A     57  52  83 CALM      30.10S
$$

SELECTED SITES ACROSS THE REGION

CITY           SKY/WX    TMP DP  RH WIND       PRES   REMARKS
HOUSTON BUSH   CLEAR     58  57  97 CALM      30.13S
HOUSTON HOBBY  CLEAR     60  57  89 CALM      30.12S
GALVESTON      CLEAR     67  59  75 N6        30.12F
COLLEGE STAT   CLEAR     62  56  80 CALM      30.13S
CONROE         CLEAR     53  51  93 CALM      30.14S
HUNTSVILLE     CLEAR     62  54  74 CALM      30.13S
LUFKIN         CLEAR     57  52  83 CALM      30.13F
SHREVEPORT     CLEAR     54  52  93 CALM      30.12S
MONROE         CLEAR     50  48  93 CALM      30.14R FOG
NATCHEZ MS     CLEAR     46  43  87 CALM      30.13S
BATON ROUGE    CLEAR     48  45  89 CALM      30.11S
N.O. INTL ARPT CLEAR     61  52  72 N10       30.09S
SLIDELL        CLEAR     46  44  93 N3        30.08F
$$

MARINE REPORTS

STATION/POSITION TIME  TEMP    WIND        PRES    VSBY  WAVE
                       AIR SEA DIR/SP/G                  HT/PER
                 (UTC) (F)     (DEG/KT/KT) (MB)    (MI)  (FT/S)
BUOY 30 S HIGH I 0900   73 77   40/  6/  8 1019.2F         1/ 7
SEA RIM ST PARK  0900   61      10/  3/  3 1020.4F
PORT ARTHUR      0900      74   10/  1/  2 1019.8F
SABINE PASS N    0900   63 72   50/  6/  6 1019.9F
TEXAS POINT      0900   63 72   30/  6/  7 1020.0F
CALCASIEU PASS   0900   63 70   40/  4/  5   N/A
LK CHARLES BEACH 0900   56 75              1019.9F
MARSH ISLAND     NOT AVBL
FRESH WATER LOCK 0900   59 72  350/  5/  6 1019.4R
AMERADA PASS     0900   58 68  350/  1/  3 1019.0S
$$



USA.gov is the U.S. government's official web portal to all federal, state and local government web resources and services.